Probability
0 0 0 0 0 0 0 0 0 0 0 0 0 0 0 0 0 0 0 0 0 0 0 0 1 2 3 2 1 0 0 0 0 0 0 0 0 0 0 1 2 3 3
0 0 0 0 0 0 0 0 0 0 0 0 0 0 0 0 0 0 0 0 0 0 0 0 1 2 3 2 1 0 0 0 0 0 0 0 0 0 0 0 2 3 3
0 0 0 0 0 0 0 0 0 0 0 0 0 0 0 0 0 0 0 0 0 0 0 0 1 2 3 2 1 1 1 0 0 0 0 0 0 0 0 1 2 3 3
0 0 0 0 0 0 0 0 0 0 0 0 0 0 0 0 0 0 0 0 0 0 0 0 0 1 2 2 2 2 2 1 0 0 0 0 0 0 0 1 2 3 3
0 0 0 0 0 0 0 0 0 0 0 0 0 0 0 0 0 0 0 0 0 0 0 0 0 0 1 1 1 2 3 2 1 0 0 0 0 0 0 1 2 3 3
0 0 0 0 0 0 0 0 0 0 0 0 0 0 0 0 0 0 0 0 0 0 0 0 0 0 0 0 0 1 2 2 1 0 0 0 0 0 0 1 2 3 3
0 0 0 0 0 0 0 0 0 0 0 0 0 0 0 0 0 0 0 0 0 0 0 0 0 0 0 0 0 0 1 1 0 0 0 0 0 0 0 0 1 2 2
0 0 0 0 0 0 0 0 0 0 0 0 0 0 0 0 0 0 0 0 0 0 0 0 0 0 0 0 0 0 0 0 0 0 0 0 0 0 0 0 0 1 1
0 0 0 0 0 0 0 0 0 0 0 0 0 0 0 0 0 0 0 0 0 0 0 0 0 0 0 0 0 0 0 0 0 0 0 0 0 0 0 0 0 0 0
0 0 0 0 0 0 0 0 0 0 0 0 0 0 0 0 0 0 0 0 0 0 0 0 0 0 0 0 0 0 0 0 0 0 0 0 0 0 0 0 0 0 0
0 0 0 0 0 0 0 0 0 0 0 0 0 0 0 0 0 0 0 0 0 0 0 0 0 0 0 0 0 0 0 0 0 0 0 0 0 0 0 0 0 0 0
0 0 0 0 0 0 0 0 0 0 0 0 0 0 0 0 0 0 0 0 0 0 0 0 0 0 0 0 0 0 0 0 0 0 0 0 0 0 0 0 0 0 0
0 0 0 0 0 0 0 0 0 0 0 0 0 0 0 0 0 0 0 0 0 0 0 0 0 0 0 0 0 0 0 0 0 0 0 0 0 0 0 0 0 0 0
0 0 0 0 0 0 0 0 0 0 0 0 0 0 0 0 0 0 0 0 0 0 0 0 0 0 0 0 0 0 0 0 0 0 0 0 0 0 0 0 0 0 0
0 0 0 0 0 0 0 0 0 0 0 0 0 0 0 0 0 0 0 0 0 0 0 0 0 0 0 0 0 0 0 0 0 0 0 0 0 0 0 0 0 0 0
0 0 0 0 0 0 0 0 0 0 0 0 0 0 0 0 0 0 0 0 0 0 0 0 0 0 0 0 0 0 0 0 0 0 0 0 0 0 0 0 0 0 0
0 0 0 0 0 0 0 0 0 0 0 0 0 0 0 0 0 0 0 0 0 0 0 0 0 0 0 0 0 0 0 0 0 0 0 0 0 0 0 0 0 0 0
0 0 0 0 0 0 0 0 0 0 0 0 0 0 0 0 0 0 0 0 0 0 0 0 0 0 0 0 0 0 0 0 0 0 0 0 0 0 0 0 0 0 0
0 0 0 0 0 0 0 0 0 0 0 0 0 0 0 0 0 0 0 0 0 0 0 0 0 0 0 0 0 0 0 0 0 0 0 0 0 0 0 0 0 0 0
0 0 0 0 0 0 0 0 0 0 0 0 0 0 0 0 0 0 0 0 0 0 0 0 0 0 0 0 0 0 0 0 0 0 0 0 0 0 0 0 0 0 0
0 0 0 0 0 0 0 0 0 0 0 0 0 0 0 0 0 0 0 0 0 0 0 0 0 0 0 0 0 0 0 0 0 0 0 0 0 0 0 0 0 0 0
0 0 0 0 0 0 0 0 0 0 0 0 0 0 0 0 0 0 0 0 0 0 0 0 0 0 0 0 0 0 0 0 0 0 0 0 0 0 0 0 0 0 0
0 0 0 0 0 0 0 0 0 0 0 0 0 0 0 0 0 0 0 0 0 0 0 0 0 0 0 0 0 0 0 0 0 0 0 0 0 0 0 0 0 0 0
0 0 0 0 0 0 0 0 0 0 0 0 0 0 0 0 0 0 0 0 0 0 0 0 0 0 0 0 0 0 0 0 0 0 0 0 0 0 0 0 0 0 0
0 0 0 0 0 0 0 0 0 0 0 0 0 0 0 0 0 0 0 0 0 0 0 0 0 0 0 0 0 0 0 0 0 0 0 0 0 0 0 0 0 0 0
0 0 0 0 0 0 0 0 0 0 0 0 0 0 0 0 0 0 0 0 0 0 0 0 0 0 0 0 0 0 0 0 0 0 0 0 0 0 0 0 0 0 0
Wind_Speed
1 1 1 2 2 2 2 2 1 2 2 2 2 2 2 2 2 2 2 4 3 3 2 1 1 2 2 2 3 3 3 4 4 4 4 3 3 4 4 4 5 5 5
1 1 1 1 2 2 2 2 2 2 1 2 2 2 2 2 2 2 1 2 4 3 3 2 1 1 2 2 3 3 3 3 4 3 3 2 3 3 3 3 4 4 5
2 1 1 1 2 2 2 2 2 2 2 2 2 2 1 1 1 1 1 1 1 3 3 2 2 1 1 1 1 2 3 3 3 3 2 2 2 2 3 3 3 4 5
3 2 2 2 2 2 2 2 2 2 1 1 1 1 1 1 1 1 1 1 0 1 1 2 2 2 1 1 1 1 2 2 3 2 2 2 2 2 2 3 3 4 4
4 3 2 2 2 2 2 2 2 2 2 2 1 1 1 0 0 0 0 0 0 0 0 1 2 2 2 2 2 1 1 2 2 2 2 2 2 3 3 3 3 4 5
4 3 3 3 3 2 2 2 2 2 2 2 1 1 0 0 0 0 1 0 0 0 1 1 1 2 2 2 2 2 1 1 2 1 1 1 2 2 3 3 4 4 5
4 4 3 3 3 3 3 3 2 2 2 2 1 0 1 1 1 1 0 0 0 0 1 1 0 0 1 2 2 2 1 1 1 1 0 0 1 2 3 3 4 5 5
3 3 4 4 4 3 4 3 3 2 1 2 2 1 0 1 2 1 0 1 1 0 0 1 0 0 0 0 1 2 2 2 1 1 2 2 3 3 3 4 5 5 6
4 3 3 3 4 4 4 4 4 3 3 2 2 3 2 3 1 2 2 1 1 1 0 0 0 0 0 0 0 1 2 3 3 3 4 4 5 5 5 5 6 7 7
4 4 4 4 4 4 4 5 4 3 4 3 2 1 1 2 2 1 2 1 1 1 1 1 1 1 1 1 1 1 2 2 3 4 5 5 6 6 7 7 7 8 8
4 4 4 4 4 4 5 5 4 4 4 4 3 2 1 1 1 2 2 2 1 2 2 2 1 1 1 1 1 2 3 4 4 4 5 6 7 7 8 9 9 9 9
3 5 5 4 5 4 5 5 5 5 4 4 3 3 3 2 2 2 2 2 2 2 2 2 2 2 2 2 2 3 4 5 5 5 6 6 7 8 9 10 10 10 10
4 6 6 5 5 5 5 5 5 5 5 5 5 4 3 3 2 2 2 1 1 1 1 2 2 2 2 1 2 4 4 5 6 6 7 7 8 8 9 10 10 11 11
4 4 5 5 5 5 5 5 5 5 4 5 5 4 3 3 2 2 2 2 1 1 2 3 2 3 2 2 3 4 3 6 7 7 7 8 8 9 9 10 11 11 12
3 4 5 5 5 5 5 5 4 5 4 5 4 4 3 3 2 2 2 2 3 2 3 3 2 2 2 1 3 2 2 5 7 7 8 9 9 10 10 11 12 12 13
3 4 5 5 5 5 5 5 4 5 5 4 3 4 4 3 3 2 2 2 2 3 3 2 2 2 1 1 3 2 3 5 6 7 8 9 10 11 11 12 12 13 13
4 4 5 5 5 5 5 5 5 5 6 5 5 5 5 4 3 3 2 2 2 2 4 3 1 1 1 2 2 2 2 3 3 7 9 10 11 11 11 12 12 12 13
3 3 4 5 5 5 5 6 6 6 6 6 6 5 5 4 4 3 3 3 3 3 3 4 3 1 2 2 2 2 2 3 3 7 9 10 10 11 12 12 12 12 12
2 3 4 5 5 5 5 6 6 6 6 6 6 6 5 5 5 4 4 4 3 3 2 3 3 2 2 1 2 2 3 3 3 5 8 9 10 11 11 11 12 11 12
2 2 3 3 4 4 5 5 5 5 5 5 5 5 5 6 5 5 4 4 3 3 2 2 3 2 2 1 1 2 3 3 4 3 5 6 8 10 11 11 11 11 11
2 2 2 3 3 3 3 4 4 5 5 5 4 4 5 5 6 5 4 4 4 3 3 3 3 2 2 2 2 2 3 3 4 2 3 4 4 4 5 8 10 11 12
1 1 2 2 3 3 4 6 5 5 5 5 5 4 4 5 6 7 7 6 6 5 5 4 4 5 5 3 2 2 2 2 4 2 2 4 2 4 4 4 9 11 12
1 2 2 2 2 3 4 5 5 4 4 4 4 4 3 3 3 4 5 5 5 7 7 5 5 6 4 4 3 3 3 3 4 3 2 4 2 4 4 5 11 11 11
1 2 2 2 2 3 4 5 5 3 3 3 3 3 3 3 3 3 3 3 3 4 4 4 4 4 3 3 4 4 3 3 3 2 1 3 3 4 4 4 9 11 11
1 1 1 1 1 2 3 3 3 2 2 2 2 2 3 2 3 4 3 3 3 3 3 3 3 3 3 3 2 1 1 1 3 3 1 2 3 3 4 4 5 9 10
1 1 1 1 1 1 2 2 2 1 2 2 1 2 3 3 4 4 3 3 4 3 1 1 2 3 2 2 3 3 3 3 2 3 2 1 2 2 4 3 3 3 5
Wind_Direction
132 134 137 139 136 127 131 126 113 101 88 74 71 70 57 46 45 51 44 38 33 25 26 23 48 81 97 106 100 96 101 103 99 90 78 63 54 40 32 30 26 25 21
145 138 133 136 140 140 131 127 124 107 91 84 70 58 52 49 52 53 57 31 24 13 3 1 30 74 82 108 121 118 107 107 111 103 87 72 53 34 19 18 14 12 9
149 154 145 151 156 144 135 129 122 111 107 92 75 60 48 37 50 48 41 29 13 11 2 1 7 4 36 109 138 130 119 110 112 103 89 79 56 26 8 7 6 2 358
157 155 158 161 153 135 138 145 144 128 120 110 89 61 57 34 33 37 43 25 18 6 0 10 6 344 324 286 227 158 133 124 122 111 95 66 48 16 346 352 350 353 348
164 164 167 170 160 151 149 159 152 147 138 126 117 94 79 68 14 25 55 41 7 50 145 10 6 340 310 293 266 225 162 135 140 130 116 78 46 20 336 338 343 339 340
172 167 169 173 164 157 156 153 151 154 152 144 120 91 103 177 169 228 199 127 38 39 58 46 1 329 319 297 278 258 233 191 153 140 117 79 34 355 335 334 337 332 329
180 175 175 176 171 170 171 166 151 161 164 144 118 23 322 235 198 226 207 160 184 46 50 39 23 11 324 318 294 267 244 215 158 165 178 339 340 320 323 318 316 319 318
184 187 183 182 177 172 173 175 163 168 182 172 146 131 317 312 299 249 208 210 208 129 38 10 30 86 60 16 325 292 277 280 273 272 272 284 289 293 295 300 304 306 307
192 189 192 190 186 180 183 185 182 175 183 208 170 153 163 212 264 270 235 216 192 169 226 285 257 220 214 141 186 285 288 293 293 288 283 278 277 278 284 290 294 297 299
190 193 197 196 195 190 188 189 187 188 174 192 207 207 184 164 160 247 280 249 220 213 226 252 247 232 214 188 190 239 263 271 288 292 290 289 285 282 284 285 285 288 292
194 198 201 197 198 199 195 192 187 193 189 190 188 179 206 243 193 176 236 259 264 241 227 237 237 231 222 200 194 226 246 253 264 273 279 286 288 286 285 286 286 288 290
200 202 204 204 203 201 198 194 195 199 199 196 192 182 175 184 203 195 208 229 244 242 234 232 226 225 228 224 223 232 242 249 257 264 272 279 285 286 285 285 285 287 288
207 209 207 208 207 205 200 191 195 202 202 198 198 203 203 205 188 192 186 214 238 255 234 235 226 226 224 213 232 233 242 249 255 262 268 274 280 282 284 284 283 283 286
214 206 207 208 209 205 202 194 196 203 204 205 207 204 208 211 197 190 184 176 222 265 241 242 235 222 220 220 234 227 239 248 256 261 265 269 273 276 278 280 279 279 281
210 203 206 206 209 206 202 196 202 202 203 207 206 205 213 212 202 203 196 182 183 217 249 235 229 228 230 229 236 231 233 251 258 262 266 270 273 274 277 277 277 277 279
206 201 204 203 206 207 201 199 202 203 203 208 204 203 213 215 205 198 200 210 206 200 238 237 229 256 248 257 250 243 241 260 257 262 269 272 273 275 276 277 277 276 277
196 199 202 202 207 209 201 204 206 201 205 210 208 207 215 206 205 203 200 203 211 201 234 268 257 257 236 261 268 256 248 250 258 264 268 270 273 274 276 277 276 276 276
199 202 200 200 206 208 203 206 208 207 209 213 212 209 215 206 208 205 203 212 216 211 210 251 277 275 258 247 258 270 272 259 262 270 269 271 274 275 275 275 274 276 276
200 204 203 205 205 206 204 209 209 210 212 216 215 213 213 203 215 212 207 213 216 217 216 230 262 278 287 270 281 285 281 279 277 276 271 273 278 279 276 273 271 274 276
201 204 205 206 205 206 204 209 212 211 214 217 218 216 213 209 212 210 212 214 209 209 215 229 250 268 281 282 263 280 291 285 286 283 275 280 281 279 278 277 274 274 276
218 213 210 212 209 208 206 207 211 210 211 216 218 218 216 215 214 210 212 210 203 211 219 231 246 262 258 262 254 259 273 292 286 265 288 283 279 274 272 273 272 272 273
225 216 223 219 220 226 222 218 215 212 208 211 215 217 218 213 220 222 224 219 210 211 218 222 234 237 243 246 251 250 268 294 284 266 280 281 257 269 270 262 271 274 274
229 225 227 222 226 239 232 221 218 209 208 213 215 214 218 216 209 217 229 233 231 234 230 222 230 236 239 231 221 238 244 255 266 272 283 277 261 267 269 273 278 275 276
238 229 230 226 229 245 241 230 218 207 208 218 218 214 212 212 210 205 207 226 240 245 244 237 239 244 242 226 213 222 236 268 292 276 237 268 280 277 286 277 274 273 278
264 236 228 225 230 264 254 238 215 197 211 230 234 222 204 202 218 209 199 216 243 261 263 255 262 265 258 240 212 168 195 250 280 273 242 259 286 299 290 275 274 279 285
277 273 271 255 253 266 262 240 216 199 218 234 241 233 219 210 216 210 203 203 228 245 240 270 266 270 258 243 231 210 207 221 250 264 229 242 279 316 308 295 296 293 289